THOR ABLESTAR DEB, 144

Orbit data source: Space-Track

THOR ABLESTAR DEB, 144 is space debris in LEO originally from a launch on Thu, 29 Jun 1961 UTC launched from the Air Force Eastern Test Range (AFETR). Debris objects in space refer to the collection of defunct objects orbiting the Earth. Examples of debris include non-operational satellites, rocket bodies, and fragments generated from explosions, collisions, or faulty payload assembly.

Loading next visibility...
Identifier
144, 1961-015AE
Orbit
LEO
Country
Flag of USUS
Related business
Manufacturer
Unknown
Mission
Spacecraft
Bus & Motor
Unknown
Mass
Unknown
Launch date (UTC)
1961-06-29 (64 years ago)
Launch vehicle
Unknown
Launch site
Air Force Eastern Test Range (AFETR)
Object type
Payload
Rocket body
Debris
Shape & HBR
Unknown
Radar Cross Section
Small (<0.1 m²)

Expand to show TLE details & history
Last TLE update: 6 hours ago

TLE from 6 hours ago
0 THOR ABLESTAR DEB
1 00144U 61015AE  25259.19357264  .00000228  00000-0  24054-3 0  9992
2 00144  66.5019 346.0703 0042798 185.2505 174.8129 13.91475189246526
Epoch: 2025-09-16T04:38Z
TLE epoch observation values (Epoch: 2025-09-16T04:38:44.676Z)
Latitude
Longitude
-79.00323°
Altitude
956.645 km
Speed
7.358 km/s
True Right ascension
23h 04m 16s
True Declination
0° 00' 00"
Sunlit
Object was in full shadow at epoch
Visualization orbit readout
Latitude
Unknown
Longitude
Unknown
Altitude
Unknown
Speed
Unknown
Apparent Right ascension
Unknown
Apparent Declination
Unknown
Sunlit
N/A
Visualization observer readout
Local Sidereal Time
03:05:03
Azimuth
Unknown
Elevation
Unknown
Doppler factor
Unknown
Orbital elements
Apogee altitude
953.136 km
Perigee altitude
890.65 km
Semi-major axis
7,300.03 km
Eccentricity
0.00428
Inclination
66.5019°
RAAN
346.0703°
Arg. of periapsis
185.2505°
True anomaly
174.857°
Mean anomaly
174.8129°
Eccentric anomaly
174.83498°
Mean motion
3.47982 °/min
Orbital period
103.45 mins
BSTAR
0.00024054
Loading maneuver chart data...
Computing Atmospheric mass density...

Documentation

Showing up to 5 results
|